Location: *
(55.5817°S, 142.4781°W)
Time: 05:53:17
(UTC+00:00)

Cosmos 2278 Rocket - Pass Details

Date: 29 April 2025
Orbit: 840 x 845 km, 71.0° (Epoch: 23 May)

Event Time Altitude Azimuth Distance (km) Brightness Sun altitude
Exits shadow 14:32:46 10° 211° (SSW) 2,515 4.4 -19.7°
Reaches altitude 10° 14:32:48 10° 211° (SSW) 2,505 4.4 -19.7°
Maximum altitude 14:36:51 19° 166° (SSE) 1,931 4.2 -19.2°
Drops below altitude 10° 14:40:53 10° 121° (ESE) 2,497 5.5 -18.6°
Sets 14:44:06 0° 103° (ESE) 3,429 6.9 -18.1°
